Location: Unspecified
(41.1850°N, 73.2650°W)
Time: 18:05:00
(UTC+00:00)

BREEZE-M DEB (TANK) - Visible Passes

Search period start: 07 March 2026 00:00
Search period end: 17 March 2026 00:00
Orbit: 612 x 17100 km, 49.5° (Epoch: 7 March)

Date Brightness Start Highest point End Pass type
(mag) Time Alt. Az. Time Alt. Az. Time Alt. Az.
7 Mar 9.0 10:25:02 10° S 11:25:49 34° SE 11:40:58 10° ENE visible
9 Mar 9.6 09:17:30 10° SSE 10:05:11 22° SE 10:22:16 10° E visible
10 Mar 8.3 11:11:36 10° SSW 12:17:57 49° SE 12:30:29 10° ENE visible
11 Mar 9.8 08:31:18 10° SE 08:44:30 11° ESE 08:53:59 10° ESE visible
12 Mar 9.0 09:51:52 10° S 10:58:05 35° SE 11:13:54 10° ENE visible
14 Mar 9.5 08:44:11 10° SSE 09:37:21 24° SE 09:55:27 10° E visible
15 Mar 8.3 10:38:30 10° SSW 11:50:17 51° SE 12:03:20 10° ENE visible
16 Mar 9.7 07:55:44 10° SE 08:16:39 13° ESE 08:29:40 10° ESE visible
